When you browse on this site, cookies collect data to enhance your experience and personalize the content and advertising you see.
Visit our Privacy Policy to learn more. By continuing to use the site, you agree to this use of cookies and data.
  • In Italy
  • List of Countries
  • For 7 days
  • Water Temperature
  • Satellite Maps
  • Weather Map
  • Weather Widgets
  • user-avatar
    Login

    Hourly Weather Artashat

    Today, 11 December, Tuesday

    Time Temperature Precipitation Wind Pressure Humidity
    00:00 -3°C° 0 mm 2 mps 599 mmHg 72%
    01:00 -3°C° 0 mm 2 mps 599 mmHg 72%
    02:00 -3°C° 0 mm 2 mps 599 mmHg 72%
    03:00 -4°C° 0 mm 2 mps 598 mmHg 73%
    04:00 -4°C° 0 mm 2 mps 598 mmHg 72%
    05:00 -4°C° 0 mm 2 mps 598 mmHg 72%
    06:00 -4°C° 0 mm 2 mps 598 mmHg 71%
    07:00 -3°C° 0 mm 2 mps 599 mmHg 68%
    08:00 -2°C° 0 mm 2 mps 599 mmHg 64%
    09:00 -1°C° 0 mm 2 mps 599 mmHg 59%
    10:00 0°C° 0 mm 3 mps 599 mmHg 57%
    11:00 +1°C° 0 mm 3 mps 599 mmHg 54%
    12:00 +3°C° 0 mm 3 mps 599 mmHg 51%
    13:00 +3°C° 0 mm 3 mps 599 mmHg 51%
    14:00 +3°C° 0 mm 3 mps 598 mmHg 51%
    15:00 +3°C° 0 mm 3 mps 598 mmHg 53%
    16:00 +2°C° 0 mm 3 mps 598 mmHg 57%
    17:00 +1°C° 0 mm 2 mps 597 mmHg 62%
    18:00 -1°C° 0 mm 2 mps 597 mmHg 66%
    19:00 -1°C° 0 mm 2 mps 597 mmHg 66%
    20:00 -1°C° 0 mm 2 mps 597 mmHg 67%
    21:00 -1°C° 0 mm 2 mps 598 mmHg 67%
    22:00 -1°C° 0.1 mm 2 mps 598 mmHg 68%
    23:00 -1°C° 0.1 mm 2 mps 598 mmHg 69%

    Tomorrow, 12 December, Wednesday

    Time Temperature Precipitation Wind Pressure Humidity
    00:00 -1°C° 0.1 mm 2 mps 598 mmHg 69%
    01:00 -1°C° 0.2 mm 2 mps 598 mmHg 71%
    02:00 -1°C° 0.2 mm 2 mps 597 mmHg 72%
    03:00 -1°C° 0.2 mm 2 mps 597 mmHg 73%
    04:00 -1°C° 0.3 mm 2 mps 597 mmHg 75%
    05:00 -1°C° 0.3 mm 2 mps 597 mmHg 76%
    06:00 -1°C° 0.3 mm 2 mps 597 mmHg 77%
    07:00 -1°C° 0.3 mm 3 mps 597 mmHg 76%
    08:00 -1°C° 0.3 mm 3 mps 597 mmHg 76%
    09:00 -1°C° 0.3 mm 3 mps 596 mmHg 75%
    10:00 0°C° 0.1 mm 4 mps 596 mmHg 70%
    11:00 +1°C° 0.1 mm 5 mps 596 mmHg 64%
    12:00 +2°C° 0.1 mm 7 mps 596 mmHg 58%
    13:00 +3°C° 0 mm 7 mps 596 mmHg 56%
    14:00 +3°C° 0 mm 7 mps 596 mmHg 55%
    15:00 +3°C° 0 mm 7 mps 596 mmHg 53%
    16:00 +2°C° 0.3 mm 5 mps 595 mmHg 57%
    17:00 +1°C° 0.3 mm 4 mps 595 mmHg 62%
    18:00 +1°C° 0.3 mm 3 mps 595 mmHg 66%
    19:00 +1°C° 0.8 mm 3 mps 595 mmHg 68%
    20:00 0°C° 0.8 mm 3 mps 594 mmHg 70%
    21:00 0°C° 0.8 mm 3 mps 594 mmHg 72%
    22:00 0°C° 1 mm 3 mps 594 mmHg 74%
    23:00 0°C° 1 mm 3 mps 595 mmHg 75%

    Day after tomorrow, 13 December, Thursday

    Time Temperature Precipitation Wind Pressure Humidity
    00:00 0°C° 1 mm 3 mps 595 mmHg 76%
    01:00 +1°C° 1 mm 2 mps 595 mmHg 78%
    02:00 -1°C° 1 mm 2 mps 595 mmHg 79%
    03:00 -1°C° 1 mm 2 mps 595 mmHg 81%
    04:00 -1°C° 0.8 mm 2 mps 595 mmHg 81%
    05:00 -1°C° 0.8 mm 2 mps 595 mmHg 81%
    06:00 -1°C° 0.8 mm 2 mps 595 mmHg 81%
    07:00 -1°C° 0.2 mm 2 mps 595 mmHg 78%
    08:00 -1°C° 0.2 mm 3 mps 596 mmHg 75%
    09:00 -1°C° 0.2 mm 3 mps 596 mmHg 72%
    10:00 -1°C° 0 mm 3 mps 597 mmHg 67%
    11:00 0°C° 0 mm 3 mps 597 mmHg 63%
    12:00 0°C° 0 mm 4 mps 597 mmHg 58%
    13:00 +1°C° 0 mm 3 mps 598 mmHg 58%
    14:00 +1°C° 0 mm 3 mps 598 mmHg 58%
    15:00 +1°C° 0 mm 3 mps 598 mmHg 58%
    16:00 0°C° 0.1 mm 3 mps 599 mmHg 60%
    17:00 -1°C° 0.1 mm 2 mps 599 mmHg 63%
    18:00 -2°C° 0.1 mm 2 mps 599 mmHg 65%
    19:00 -3°C° 0 mm 2 mps 600 mmHg 66%
    20:00 -4°C° 0 mm 2 mps 600 mmHg 67%
    21:00 -4°C° 0 mm 2 mps 600 mmHg 67%
    22:00 -4°C° 0 mm 2 mps 601 mmHg 68%
    23:00 -5°C° 0 mm 2 mps 601 mmHg 68%

    14 December, Friday

    Time Temperature Precipitation Wind Pressure Humidity
    00:00 -5°C° 0 mm 2 mps 601 mmHg 68%
    01:00 -5°C° 0 mm 2 mps 601 mmHg 68%
    02:00 -6°C° 0 mm 2 mps 601 mmHg 69%
    03:00 -6°C° 0 mm 2 mps 601 mmHg 69%
    04:00 -7°C° 0 mm 2 mps 601 mmHg 69%
    05:00 -7°C° 0 mm 2 mps 601 mmHg 69%
    06:00 -7°C° 0 mm 2 mps 601 mmHg 69%
    07:00 -6°C° 0 mm 2 mps 602 mmHg 68%
    08:00 -6°C° 0 mm 2 mps 602 mmHg 66%
    09:00 -5°C° 0 mm 2 mps 602 mmHg 64%
    10:00 -4°C° 0 mm 2 mps 602 mmHg 63%
    11:00 -3°C° 0 mm 2 mps 602 mmHg 61%
    12:00 -2°C° 0 mm 2 mps 602 mmHg 60%
    13:00 -2°C° 0 mm 2 mps 602 mmHg 60%
    14:00 -2°C° 0 mm 2 mps 601 mmHg 61%
    15:00 -2°C° 0 mm 2 mps 601 mmHg 61%
    16:00 -3°C° 0 mm 2 mps 601 mmHg 63%
    17:00 -4°C° 0 mm 2 mps 601 mmHg 65%
    18:00 -5°C° 0 mm 2 mps 601 mmHg 67%
    19:00 -5°C° 0 mm 2 mps 601 mmHg 67%
    20:00 -5°C° 0 mm 2 mps 601 mmHg 67%
    21:00 -5°C° 0 mm 2 mps 601 mmHg 67%
    22:00 -5°C° 0 mm 2 mps 601 mmHg 67%
    23:00 -6°C° 0 mm 2 mps 601 mmHg 68%

    15 December, Saturday

    Time Temperature Precipitation Wind Pressure Humidity
    00:00 -6°C° 0 mm 2 mps 601 mmHg 69%
    01:00 -6°C° 0 mm 2 mps 601 mmHg 69%
    02:00 -6°C° 0 mm 2 mps 601 mmHg 70%
    03:00 -6°C° 0 mm 2 mps 602 mmHg 71%
    04:00 -6°C° 0 mm 2 mps 602 mmHg 71%
    05:00 -6°C° 0 mm 2 mps 602 mmHg 72%
    06:00 -6°C° 0 mm 2 mps 602 mmHg 72%
    07:00 -4°C° 0 mm 1 mps 603 mmHg 70%
    08:00 -3°C° 0 mm 1 mps 603 mmHg 69%
    09:00 -3°C° 0 mm 1 mps 604 mmHg 67%
    10:00 -2°C° 0 mm 1 mps 604 mmHg 65%
    11:00 -1°C° 0 mm 1 mps 604 mmHg 63%
    12:00 0°C° 0 mm 1 mps 604 mmHg 61%
    13:00 0°C° 0 mm 1 mps 604 mmHg 61%
    14:00 0°C° 0 mm 1 mps 604 mmHg 61%
    15:00 0°C° 0 mm 1 mps 604 mmHg 61%
    16:00 -1°C° 0 mm 1 mps 604 mmHg 63%
    17:00 -2°C° 0 mm 1 mps 604 mmHg 64%
    18:00 -3°C° 0 mm 1 mps 604 mmHg 66%
    19:00 -4°C° 0 mm 1 mps 604 mmHg 64%
    20:00 -4°C° 0 mm 1 mps 604 mmHg 63%
    21:00 -4°C° 0 mm 1 mps 604 mmHg 61%
    22:00 -4°C° 0 mm 1 mps 604 mmHg 60%
    23:00 -4°C° 0 mm 1 mps 604 mmHg 59%

    16 December, Sunday

    Time Temperature Precipitation Wind Pressure Humidity
    00:00 -4°C° 0 mm 1 mps 604 mmHg 58%
    01:00 -4°C° 0 mm 1 mps 604 mmHg 57%
    02:00 -4°C° 0 mm 1 mps 604 mmHg 56%
    03:00 -6°C° 0 mm 1 mps 604 mmHg 55%
    04:00 -6°C° 0 mm 1 mps 604 mmHg 54%
    05:00 -6°C° 0 mm 1 mps 603 mmHg 53%
    06:00 -6°C° 0 mm 1 mps 603 mmHg 53%
    07:00 -4°C° 0 mm 1 mps 604 mmHg 51%
    08:00 -3°C° 0 mm 1 mps 604 mmHg 49%
    09:00 -2°C° 0 mm 1 mps 605 mmHg 47%
    10:00 -1°C° 0 mm 1 mps 605 mmHg 47%
    11:00 0°C° 0 mm 1 mps 605 mmHg 48%
    12:00 +1°C° 0 mm 1 mps 605 mmHg 48%
    13:00 +1°C° 0 mm 1 mps 605 mmHg 49%
    14:00 +2°C° 0 mm 1 mps 604 mmHg 49%
    15:00 +2°C° 0 mm 1 mps 604 mmHg 50%
    16:00 0°C° 0 mm 1 mps 604 mmHg 51%
    17:00 -1°C° 0 mm 1 mps 604 mmHg 52%
    18:00 -2°C° 0 mm 1 mps 604 mmHg 54%
    19:00 -2°C° 0 mm 1 mps 604 mmHg 53%
    20:00 -2°C° 0 mm 1 mps 603 mmHg 52%
    21:00 -2°C° 0 mm 1 mps 603 mmHg 51%
    22:00 -2°C° 0 mm 1 mps 603 mmHg 51%
    23:00 -2°C° 0 mm 1 mps 603 mmHg 50%
    Show more